Weather History for Fort Dodge, IA

Change the Weather History Date:

Friday, March 14, 2014

  Actual Average Record
Temperature  
Mean Temperature 42 °F -  
Max Temperature 50 °F 43 °F 78 °F (2012)
Min Temperature 33 °F 23 °F -8 °F (1960)
Degree Days  
Heating Degree Days 24    
Moisture  
Dew Point 32 °F    
Average Humidity 68    
Maximum Humidity 87    
Minimum Humidity 57    
Precipitation  
Precipitation 0.00 in - - ()
Sea Level Pressure  
Sea Level Pressure 29.78 in    
Wind  
Wind Speed 11 mph (WNW)    
Max Wind Speed 20 mph    
Max Gust Speed 29 mph    
Visibility 10 miles    
Events      
Averages and records for this station are not official NWS values.
T = Trace of Precipitation, MM = Missing Value Source: NWS Daily Summary

Daily Weather History Graph

Daily Weather History Graph

Search for Another Location

Airport:

Trip Planner

Search our weather history database for the weather conditions in past years. The results will help you decide how hot, cold, wet, or windy it might be!

Date:

Astronomy

Mar. 14, 2014 Rise Set
Actual Time 7:30 AM CDT 7:22 PM CDT
Civil Twilight 7:02 AM CDT 7:50 PM CDT
Nautical Twilight 6:29 AM CDT 8:22 PM CDT
Astronomical Twilight 5:56 AM CDT 8:56 PM CDT
Moon 5:43 PM CDT (3/14) 6:12 AM CDT (3/14)
Length of Visible Light 12h 47m
Length of Day
11h 51m
Waxing Gibbous, 96% of the Moon is Illuminated
Mar 14
Waxing Gibbous
Mar 16
Full
Mar 23
Last Quarter
Mar 30
New
Apr 7
First Quarter

Hourly Weather History & Observations

Time (CDT) Temp. Windchill Dew Point Humidity Pressure Visibility Wind Dir Wind Speed Gust Speed Precip Events Conditions
12:15 AM 42.8 °F 35.4 °F 30.2 °F 61% 29.61 in 10.0 mi SSW 15.0 mph - N/A   Clear
12:35 AM 42.8 °F 35.8 °F 30.2 °F 61% 29.60 in 10.0 mi SSW 13.8 mph - N/A   Clear
12:55 AM 42.8 °F 35.4 °F 30.2 °F 61% 29.59 in 10.0 mi SSW 15.0 mph - N/A   Clear
1:15 AM 42.8 °F 35.4 °F 30.2 °F 61% 29.58 in 10.0 mi SSW 15.0 mph - N/A   Clear
1:35 AM 42.8 °F 36.2 °F 28.4 °F 57% 29.58 in 10.0 mi SSW 12.7 mph - N/A   Clear
1:55 AM 41.0 °F 35.2 °F 28.4 °F 61% 29.61 in 10.0 mi WSW 9.2 mph - N/A   Clear
2:15 AM 41.0 °F 34.3 °F 28.4 °F 61% 29.60 in 10.0 mi SW 11.5 mph - N/A   Clear
2:35 AM 42.8 °F 37.0 °F 28.4 °F 57% 29.60 in 10.0 mi WSW 10.4 mph - N/A   Clear
2:55 AM 42.8 °F 37.5 °F 28.4 °F 57% 29.60 in 10.0 mi WSW 9.2 mph - N/A   Clear
3:15 AM 39.2 °F 34.2 °F 26.6 °F 61% 29.60 in 10.0 mi West 6.9 mph - N/A   Clear
3:35 AM 39.2 °F 35.0 °F 26.6 °F 61% 29.60 in 10.0 mi WSW 5.8 mph - N/A   Clear
3:55 AM 39.2 °F 34.2 °F 26.6 °F 61% 29.61 in 10.0 mi West 6.9 mph - N/A   Clear
4:15 AM 37.4 °F - 26.6 °F 65% 29.61 in 10.0 mi Calm Calm - N/A   Scattered Clouds
4:35 AM 37.4 °F 34.9 °F 26.6 °F 65% 29.62 in 10.0 mi WNW 3.5 mph - N/A   Mostly Cloudy
4:55 AM 39.2 °F - 28.4 °F 65% 29.62 in 10.0 mi Calm Calm - N/A   Overcast
5:15 AM 41.0 °F 36.4 °F 30.2 °F 65% 29.64 in 10.0 mi NNW 6.9 mph - N/A   Mostly Cloudy
5:35 AM 39.2 °F 33.6 °F 30.2 °F 70% 29.65 in 10.0 mi NNW 8.1 mph - N/A   Clear
5:55 AM 39.2 °F 33.0 °F 30.2 °F 70% 29.67 in 10.0 mi NNW 9.2 mph 16.1 mph N/A   Clear
6:15 AM 39.2 °F 33.6 °F 30.2 °F 70% 29.67 in 10.0 mi NNW 8.1 mph - N/A   Mostly Cloudy
6:35 AM 39.2 °F 33.0 °F 30.2 °F 70% 29.69 in 10.0 mi NW 9.2 mph 16.1 mph N/A   Mostly Cloudy
6:55 AM 37.4 °F 31.4 °F 28.4 °F 70% 29.69 in 10.0 mi NNW 8.1 mph - N/A   Clear
7:15 AM 35.6 °F 31.7 °F 28.4 °F 75% 29.70 in 10.0 mi NW 4.6 mph - N/A   Clear
7:35 AM 35.6 °F 29.9 °F 30.2 °F 81% 29.71 in 10.0 mi WNW 6.9 mph - N/A   Clear
7:55 AM 35.6 °F 29.9 °F 28.4 °F 75% 29.71 in 10.0 mi WNW 6.9 mph - N/A   Clear
8:15 AM 35.6 °F 29.2 °F 30.2 °F 81% 29.72 in 10.0 mi WNW 8.1 mph - N/A   Clear
8:35 AM 37.4 °F 30.8 °F 30.2 °F 75% 29.73 in 10.0 mi WNW 9.2 mph 16.1 mph N/A   Clear
8:55 AM 37.4 °F 29.8 °F 30.2 °F 75% 29.74 in 10.0 mi WNW 11.5 mph 19.6 mph N/A   Clear
9:15 AM 39.2 °F 31.6 °F 30.2 °F 70% 29.75 in 10.0 mi WNW 12.7 mph 19.6 mph N/A   Clear
9:35 AM 41.0 °F 34.3 °F 30.2 °F 65% 29.76 in 10.0 mi WNW 11.5 mph 18.4 mph N/A   Clear
9:55 AM 41.0 °F 32.8 °F 32.0 °F 70% 29.77 in 10.0 mi WNW 16.1 mph 21.9 mph N/A   Clear
10:15 AM 42.8 °F 34.8 °F 33.8 °F 70% 29.77 in 10.0 mi WNW 17.3 mph 26.5 mph N/A   Clear
10:35 AM 42.8 °F 35.8 °F 33.8 °F 70% 29.77 in 10.0 mi WNW 13.8 mph 25.3 mph N/A   Clear
10:55 AM 44.6 °F 37.8 °F 33.8 °F 66% 29.78 in 10.0 mi WNW 15.0 mph 25.3 mph N/A   Clear
11:15 AM 44.6 °F 37.2 °F 33.8 °F 66% 29.78 in 10.0 mi WNW 17.3 mph 27.6 mph N/A   Clear
11:35 AM 44.6 °F 37.2 °F 33.8 °F 66% 29.79 in 10.0 mi WNW 17.3 mph 26.5 mph N/A   Partly Cloudy
11:55 AM 46.4 °F 40.7 °F 35.6 °F 66% 29.79 in 10.0 mi WNW 12.7 mph 28.8 mph N/A   Scattered Clouds
12:15 PM 46.4 °F 40.4 °F 35.6 °F 66% 29.80 in 10.0 mi NW 13.8 mph 24.2 mph N/A   Scattered Clouds
12:35 PM 46.4 °F 39.0 °F 35.6 °F 66% 29.81 in 10.0 mi WNW 19.6 mph 26.5 mph N/A   Mostly Cloudy
12:55 PM 46.4 °F 39.8 °F 35.6 °F 66% 29.82 in 10.0 mi WNW 16.1 mph 27.6 mph N/A   Overcast
1:15 PM 46.4 °F 39.8 °F 35.6 °F 66% 29.82 in 10.0 mi WNW 16.1 mph 25.3 mph N/A   Overcast
1:35 PM 46.4 °F 39.8 °F 35.6 °F 66% 29.83 in 10.0 mi NW 16.1 mph 26.5 mph N/A   Overcast
1:55 PM 48.2 °F - 35.6 °F 62% 29.83 in 10.0 mi WNW 19.6 mph 26.5 mph N/A   Overcast
2:15 PM 48.2 °F - 35.6 °F 62% 29.83 in 10.0 mi WNW 18.4 mph 26.5 mph N/A   Overcast
2:35 PM 48.2 °F - 33.8 °F 58% 29.84 in 10.0 mi NW 19.6 mph 28.8 mph N/A   Overcast
2:55 PM 48.2 °F - 35.6 °F 62% 29.83 in 10.0 mi WNW 17.3 mph 25.3 mph N/A   Mostly Cloudy
3:15 PM 50.0 °F - 35.6 °F 58% 29.84 in 10.0 mi WNW 15.0 mph 23.0 mph N/A   Mostly Cloudy
3:35 PM 48.2 °F - 35.6 °F 62% 29.84 in 10.0 mi NW 18.4 mph 23.0 mph N/A   Partly Cloudy
3:55 PM 50.0 °F - 35.6 °F 58% 29.85 in 10.0 mi WNW 16.1 mph 28.8 mph N/A   Mostly Cloudy
4:15 PM 48.2 °F - 33.8 °F 58% 29.85 in 10.0 mi NW 17.3 mph 23.0 mph N/A   Mostly Cloudy
4:35 PM 48.2 °F - 33.8 °F 58% 29.85 in 10.0 mi NNW 11.5 mph 18.4 mph N/A   Mostly Cloudy
4:55 PM 48.2 °F - 35.6 °F 62% 29.85 in 10.0 mi NNW 9.2 mph 16.1 mph N/A   Mostly Cloudy
5:15 PM 48.2 °F - 35.6 °F 62% 29.85 in 10.0 mi NNW 8.1 mph - N/A   Scattered Clouds
5:35 PM 46.4 °F 42.9 °F 33.8 °F 62% 29.86 in 10.0 mi NNW 6.9 mph - N/A   Scattered Clouds
5:55 PM 48.2 °F - 35.6 °F 62% 29.87 in 10.0 mi NNW 6.9 mph - N/A   Mostly Cloudy
6:15 PM 46.4 °F 43.5 °F 35.6 °F 66% 29.87 in 10.0 mi NNW 5.8 mph - N/A   Scattered Clouds
6:35 PM 44.6 °F 41.4 °F 35.6 °F 71% 29.88 in 10.0 mi NW 5.8 mph - N/A   Mostly Cloudy
6:55 PM 44.6 °F 40.7 °F 35.6 °F 71% 29.89 in 10.0 mi NW 6.9 mph - N/A   Overcast
7:15 PM 44.6 °F 40.2 °F 33.8 °F 66% 29.90 in 10.0 mi NNW 8.1 mph - N/A   Mostly Cloudy
7:35 PM 42.8 °F 38.6 °F 33.8 °F 70% 29.91 in 10.0 mi NNW 6.9 mph - N/A   Partly Cloudy
7:55 PM 41.0 °F 38.0 °F 33.8 °F 76% 29.92 in 10.0 mi NNW 4.6 mph - N/A   Clear
8:15 PM 41.0 °F 37.1 °F 32.0 °F 70% 29.92 in 10.0 mi NNW 5.8 mph - N/A   Clear
8:35 PM 39.2 °F - 30.2 °F 70% 29.93 in 10.0 mi Calm Calm - N/A   Clear
8:55 PM 37.4 °F - 30.2 °F 75% 29.93 in 10.0 mi Calm Calm - N/A   Clear
9:15 PM 35.6 °F - 30.2 °F 81% 29.93 in 10.0 mi Calm Calm - N/A   Clear
9:35 PM 35.6 °F - 30.2 °F 81% 29.94 in 10.0 mi Calm Calm - N/A   Clear
9:55 PM 37.4 °F - 30.2 °F 75% 29.95 in 10.0 mi Calm Calm - N/A   Clear
10:15 PM 33.8 °F - 30.2 °F 87% 29.95 in 10.0 mi Calm Calm - N/A   Clear
10:35 PM 33.8 °F - 28.4 °F 81% 29.96 in 10.0 mi Calm Calm - N/A   Clear
10:55 PM 35.6 °F - 30.2 °F 81% 29.96 in 10.0 mi North - - N/A   Clear
11:15 PM 35.6 °F 30.7 °F 30.2 °F 81% 29.96 in 10.0 mi NNE 5.8 mph - N/A   Clear
11:35 PM 35.6 °F 31.7 °F 30.2 °F 81% 29.97 in 10.0 mi NNE 4.6 mph - N/A   Clear
11:55 PM 33.8 °F 29.6 °F 30.2 °F 87% 29.96 in 10.0 mi NE 4.6 mph - N/A   Clear